Flag for Canada Weather past 2 weeks in Sarnia, Ontario, Canada

Now
63 °F

Fog.


Feels Like: 63 °F
Forecast: 59 / 70 °F
Wind: 9 mph from North

Location: Sarnia Airport

Current Time: Jun 30, 2015 at 12:59:59 PM

Latest Report: Jun 30, 2015 at 12:00 PM


Visibility: 6 mi

Pressure: 29.80 "Hg

Humidity: 94%

Dew point: 61 °F

Location of SarniaLocation

Historic Weather in Sarnia — Graph

°F

Sarnia temperature yesterday

Maximum temperature yesterday: 75 °F (at 4:00 PM)
Minimum temperature yesterday: 55 °F (at 6:00 AM)
Average temperature yesterday: 64 °F

Past Weeks' High & Low Weather Summary

 TemperatureHumidityPressure
High81 °F (Jun 15, 3:00 PM)94% (Jun 16, 1:02 AM)30.16 "Hg (Jun 16, 1:02 AM)
Low50 °F (Jun 20, 4:00 AM)30% (Jun 24, 4:00 PM)29.67 "Hg (Jun 23, 3:00 AM)
Average65 °F78%29.94 "Hg
* Reported Jun 15 12:02 PM — Jun 30 12:00 Noon, Sarnia, Weather by CustomWeather, © 2015

Note: Actual official high and low records may vary slightly from our data, if they occured in-between our weather recording intervals... More about our weather records

Advertising

Sarnia weather history for previous 24 hours

 ConditionsComfort  
Time TempWeatherWind HumidityBarometerVisibility
12:00 PM
Tue, Jun 30
63 °FFog.9 mph94%29.80 "Hg6 mi
11:59 AM63 °FFog.8 mph94%29.80 "Hg6 mi
11:00 AM63 °FLow clouds.No wind94%29.80 "Hg9 mi
10:51 AM63 °FFog.No wind94%29.80 "Hg6 mi
10:00 AM63 °FFog.2 mph94%29.82 "Hg3 mi
9:56 AM63 °FFog.2 mph94%29.81 "Hg3 mi
9:04 AM63 °FLight rain. Fog.5 mph88%29.82 "Hg2 mi
8:00 AM63 °FMostly cloudy.5 mph88%29.81 "Hg9 mi
7:55 AM63 °FMostly cloudy.5 mph88%29.81 "Hg9 mi
7:00 AM61 °FOvercast.3 mph88%29.80 "Hg9 mi
6:00 AM61 °FMostly cloudy.5 mph88%29.79 "Hg9 mi
5:00 AM61 °FOvercast.No wind88%29.80 "Hg9 mi
4:00 AM61 °FOvercast.5 mph88%29.81 "Hg9 mi
3:00 AM61 °FOvercast.No wind88%29.82 "Hg9 mi
2:00 AM59 °FPassing clouds.No wind88%29.83 "Hg9 mi
1:00 AM59 °FClear.5 mph88%29.85 "Hg9 mi
12:00 AM59 °FClear.2 mph88%29.86 "Hg9 mi
11:00 PM
Mon, Jun 29
63 °FClear.2 mph77%29.87 "Hg9 mi
10:00 PM64 °FSunny.3 mph68%29.86 "Hg9 mi
9:00 PM68 °FSunny.3 mph64%29.85 "Hg9 mi
8:00 PM70 °FSunny.7 mph60%29.85 "Hg9 mi
7:00 PM72 °FSunny.13 mph57%29.85 "Hg9 mi
6:00 PM72 °FPartly sunny.12 mph61%29.85 "Hg9 mi
5:00 PM73 °FBroken clouds.14 mph57%29.85 "Hg9 mi
4:00 PM75 °FPartly sunny.7 mph54%29.85 "Hg9 mi
3:00 PM73 °FMild.15 mph47%29.86 "Hg9 mi
Weather by CustomWeather, © 2015

See weather overviewHow to use our weather pages